Al Hoceima, Morocco

7:13 AM WET on February 08, 2016 (GMT +0000)
Cherif Al Idrissi

Weather History for GMTA - December, 2012

Change the Weather History Date:

Monday, December 24, 2012

  Actual Average Record
Temperature  
Mean Temperature 53 °F -  
Max Temperature 62 °F 59 °F 73 °F (2002)
Min Temperature 44 °F 45 °F 41 °F (2003)
Degree Days  
Heating Degree Days 12    
Growing Degree Days 3 (Base 50)    
Moisture  
Dew Point 53 °F    
Average Humidity 91    
Maximum Humidity 100    
Minimum Humidity 77    
Precipitation  
Precipitation 0.00 in - - ()
Sea Level Pressure  
Sea Level Pressure 30.08 in    
Wind  
Wind Speed 3 mph ()    
Max Wind Speed 5 mph    
Max Gust Speed -    
Visibility 2.6 miles    
Events Fog    
Averages and records for this station are not official NWS values.
T = Trace of Precipitation, MM = Missing Value Source: Averaged Metar Reports

Daily Weather History Graph

Daily Weather History Graph

Search for Another Location

Airport or City:

Trip Planner

Search our weather history database for the weather conditions in past years. The results will help you decide how hot, cold, wet, or windy it might be!

Date:

Astronomy

Dec. 24, 2012 Rise Set
Actual Time 7:21 AM WET 5:08 PM WET
Civil Twilight 6:53 AM WET 5:37 PM WET
Nautical Twilight 6:21 AM WET 6:08 PM WET
Astronomical Twilight 5:50 AM WET 6:39 PM WET
Moon 2:24 PM WET (12/24) 3:50 AM WET (12/24)
Length of Visible Light 10h 43m
Length of Day
9h 47m
Waxing Gibbous, 87% of the Moon is Illuminated
Dec 24
Waxing Gibbous
Dec 28
Full
Jan 5
Last Quarter
Jan 11
New
Jan 18
First Quarter

Hourly Weather History & Observations

Time (WET) Temp. Dew Point Humidity Pressure Visibility Wind Dir Wind Speed Gust Speed Precip Events Conditions
6:00 AM 51 °F 48 °F 85% 30.14 in 2 mi SSW 2.3 mph - -   Mist
6:00 AM 50.0 °F 48.2 °F 94% 30.12 in 1.9 mi SSW 2.3 mph - N/A   Overcast
7:00 AM 50.0 °F 50.0 °F 100% 30.12 in 0.5 mi SSW 2.3 mph - N/A Fog Fog
8:00 AM 48.2 °F 48.2 °F 100% 30.12 in 0.5 mi SSW 2.3 mph - N/A Fog Fog
9:00 AM 50 °F 49 °F 95% 30.16 in 0 mi South 2.3 mph - - Fog Partial Fog
9:00 AM 50.0 °F 50.0 °F 100% 30.15 in 0.5 mi South 2.3 mph - N/A Fog Fog
10:00 AM 51.8 °F 51.8 °F 100% 30.15 in 0.4 mi SE 2.3 mph - N/A Fog Fog
11:00 AM 53.6 °F 53.6 °F 100% 30.15 in 0.4 mi NNE 4.6 mph - N/A Fog Fog
11:40 AM 55.4 °F 51.8 °F 88% 30.12 in 3.7 mi NNE 4.6 mph - N/A   Scattered Clouds
12:00 PM 55 °F 52 °F 87% 30.14 in 4 mi NNE 4.6 mph - -   Partly Cloudy
12:00 PM 55.4 °F 51.8 °F 88% 30.12 in 3.7 mi NNE 4.6 mph - N/A   Scattered Clouds
1:00 PM 60.8 °F 53.6 °F 77% 30.09 in 5.0 mi North 4.6 mph - N/A   Partly Cloudy
2:00 PM 60.8 °F 57.2 °F 88% 30.06 in 6.2 mi NNE 4.6 mph - N/A   Partly Cloudy
3:00 PM 61 °F 57 °F 82% 30.06 in 6 mi North 4.6 mph - -   Scattered Clouds
3:00 PM 60.8 °F 57.2 °F 88% 30.06 in 6.2 mi North 4.6 mph - N/A   Partly Cloudy
4:00 PM 60.8 °F 55.4 °F 82% 30.04 in - NW 4.6 mph - N/A   Clear
5:00 PM 59.0 °F 55.4 °F 88% 30.04 in - NW 4.6 mph - N/A   Clear
5:40 PM 57.2 °F 53.6 °F 88% 30.01 in 3.7 mi WNW 4.6 mph - N/A   Mostly Cloudy
6:00 PM 57 °F 53 °F 84% 30.03 in 4 mi WNW 4.6 mph - -   Mostly Cloudy
6:00 PM 57.2 °F 53.6 °F 88% 30.01 in 3.7 mi WNW 4.6 mph - N/A   Mostly Cloudy
7:00 PM 57.2 °F 53.6 °F 88% 30.04 in 3.1 mi West 2.3 mph - N/A   Mostly Cloudy
8:00 PM 55.4 °F 53.6 °F 94% 30.01 in 3.1 mi SSW 2.3 mph - N/A   Mostly Cloudy
8:30 PM 55.4 °F 53.6 °F 94% 30.01 in 1.9 mi SSW 2.3 mph - N/A   Overcast
8:40 PM 55.4 °F 53.6 °F 94% 30.01 in 0.7 mi SSW 2.3 mph - N/A   Overcast
9:00 PM 55 °F 54 °F 93% 30.02 in 1 mi SSW 2.3 mph - -   Overcast
9:00 PM 55.4 °F 53.6 °F 94% 30.01 in 0.7 mi SSW 2.3 mph - N/A   Overcast